owner,sensor,date,latitude,longitude,relative_humidity,qcFlag 
WAVCIS,ioos:station:WAVCIS:CSI06:1,2008-11-01T00:00:00Z,28.8667,-90.4833,62.3,11111222 
WAVCIS,ioos:station:WAVCIS:CSI06:1,2008-11-01T02:00:00Z,28.8667,-90.4833,73.9,11111222 
WAVCIS,ioos:station:WAVCIS:CSI06:1,2008-11-01T03:00:00Z,28.8667,-90.4833,69.3,11111222 
WAVCIS,ioos:station:WAVCIS:CSI06:1,2008-11-01T04:00:00Z,28.8667,-90.4833,67.6,11111222 
WAVCIS,ioos:station:WAVCIS:CSI06:1,2008-11-01T05:00:00Z,28.8667,-90.4833,57.9,11111222 
WAVCIS,ioos:station:WAVCIS:CSI06:1,2008-11-01T06:00:00Z,28.8667,-90.4833,56.3,11111222 
WAVCIS,ioos:station:WAVCIS:CSI06:1,2008-11-01T07:00:00Z,28.8667,-90.4833,46.3,11111222 
WAVCIS,ioos:station:WAVCIS:CSI06:1,2008-11-01T08:00:00Z,28.8667,-90.4833,48.6,11111222 
WAVCIS,ioos:station:WAVCIS:CSI06:1,2008-11-01T09:00:00Z,28.8667,-90.4833,62.4,11111222 
WAVCIS,ioos:station:WAVCIS:CSI06:1,2008-11-01T10:00:00Z,28.8667,-90.4833,63.1,11111222 
WAVCIS,ioos:station:WAVCIS:CSI06:1,2008-11-01T11:00:00Z,28.8667,-90.4833,60.7,11111222 
WAVCIS,ioos:station:WAVCIS:CSI06:1,2008-11-01T12:00:00Z,28.8667,-90.4833,63.8,11111222 
WAVCIS,ioos:station:WAVCIS:CSI06:1,2008-11-01T13:00:00Z,28.8667,-90.4833,64.8,11111222 
WAVCIS,ioos:station:WAVCIS:CSI06:1,2008-11-01T15:00:00Z,28.8667,-90.4833,68.0,11111222 
WAVCIS,ioos:station:WAVCIS:CSI06:1,2008-11-01T16:00:00Z,28.8667,-90.4833,65.2,11111222 
WAVCIS,ioos:station:WAVCIS:CSI06:1,2008-11-01T17:00:00Z,28.8667,-90.4833,64.5,11111222 
WAVCIS,ioos:station:WAVCIS:CSI06:1,2008-11-01T19:00:00Z,28.8667,-90.4833,56.8,11111222 
WAVCIS,ioos:station:WAVCIS:CSI06:1,2008-11-01T20:00:00Z,28.8667,-90.4833,54.5,11111222 
WAVCIS,ioos:station:WAVCIS:CSI06:1,2008-11-01T21:00:00Z,28.8667,-90.4833,49.8,11111222 
WAVCIS,ioos:station:WAVCIS:CSI06:1,2008-11-01T22:00:00Z,28.8667,-90.4833,46.3,11111222 
WAVCIS,ioos:station:WAVCIS:CSI06:1,2008-11-01T23:00:00Z,28.8667,-90.4833,47.0,11111222 
WAVCIS,ioos:station:WAVCIS:CSI06:1,2008-11-02T00:00:00Z,28.8667,-90.4833,51.7,11111222 
WAVCIS,ioos:station:WAVCIS:CSI06:1,2008-11-02T01:00:00Z,28.8667,-90.4833,52.8,11111222 
WAVCIS,ioos:station:WAVCIS:CSI06:1,2008-11-02T02:00:00Z,28.8667,-90.4833,49.7,11111222 
WAVCIS,ioos:station:WAVCIS:CSI06:1,2008-11-02T03:00:00Z,28.8667,-90.4833,50.4,11111222 
WAVCIS,ioos:station:WAVCIS:CSI06:1,2008-11-02T04:00:00Z,28.8667,-90.4833,46.8,11111222 
WAVCIS,ioos:station:WAVCIS:CSI06:1,2008-11-02T05:00:00Z,28.8667,-90.4833,45.2,11111222 
WAVCIS,ioos:station:WAVCIS:CSI06:1,2008-11-02T06:00:00Z,28.8667,-90.4833,48.6,11111222 
WAVCIS,ioos:station:WAVCIS:CSI06:1,2008-11-02T07:00:00Z,28.8667,-90.4833,50.0,11111222 
WAVCIS,ioos:station:WAVCIS:CSI06:1,2008-11-02T08:00:00Z,28.8667,-90.4833,54.0,11111222 
WAVCIS,ioos:station:WAVCIS:CSI06:1,2008-11-02T09:00:00Z,28.8667,-90.4833,57.4,11111222 
WAVCIS,ioos:station:WAVCIS:CSI06:1,2008-11-02T10:00:00Z,28.8667,-90.4833,56.9,11111222 
WAVCIS,ioos:station:WAVCIS:CSI06:1,2008-11-02T11:00:00Z,28.8667,-90.4833,53.7,11111222 
WAVCIS,ioos:station:WAVCIS:CSI06:1,2008-11-02T12:00:00Z,28.8667,-90.4833,47.8,11111222 
WAVCIS,ioos:station:WAVCIS:CSI06:1,2008-11-02T13:00:00Z,28.8667,-90.4833,45.6,11111222 
WAVCIS,ioos:station:WAVCIS:CSI06:1,2008-11-02T14:00:00Z,28.8667,-90.4833,50.8,11111222 
WAVCIS,ioos:station:WAVCIS:CSI06:1,2008-11-02T15:00:00Z,28.8667,-90.4833,52.3,11111222 
WAVCIS,ioos:station:WAVCIS:CSI06:1,2008-11-02T16:00:00Z,28.8667,-90.4833,48.9,11111222 
WAVCIS,ioos:station:WAVCIS:CSI06:1,2008-11-02T17:00:00Z,28.8667,-90.4833,41.7,11111222 
WAVCIS,ioos:station:WAVCIS:CSI06:1,2008-11-02T18:00:00Z,28.8667,-90.4833,40.1,11111222 
WAVCIS,ioos:station:WAVCIS:CSI06:1,2008-11-02T19:00:00Z,28.8667,-90.4833,34.4,11111222 
WAVCIS,ioos:station:WAVCIS:CSI06:1,2008-11-02T20:00:00Z,28.8667,-90.4833,30.3,11111222 
WAVCIS,ioos:station:WAVCIS:CSI06:1,2008-11-02T21:00:00Z,28.8667,-90.4833,30.5,11111222 
WAVCIS,ioos:station:WAVCIS:CSI06:1,2008-11-02T22:00:00Z,28.8667,-90.4833,38.5,11111222 
WAVCIS,ioos:station:WAVCIS:CSI06:1,2008-11-02T23:00:00Z,28.8667,-90.4833,44.1,11111222 
WAVCIS,ioos:station:WAVCIS:CSI06:1,2008-11-03T00:00:00Z,28.8667,-90.4833,44.7,11111222 
WAVCIS,ioos:station:WAVCIS:CSI06:1,2008-11-03T01:00:00Z,28.8667,-90.4833,46.0,11111222 
WAVCIS,ioos:station:WAVCIS:CSI06:1,2008-11-03T02:00:00Z,28.8667,-90.4833,46.3,11111222 
WAVCIS,ioos:station:WAVCIS:CSI06:1,2008-11-03T03:00:00Z,28.8667,-90.4833,47.6,11111222 
WAVCIS,ioos:station:WAVCIS:CSI06:1,2008-11-03T04:00:00Z,28.8667,-90.4833,43.7,11111222 
WAVCIS,ioos:station:WAVCIS:CSI06:1,2008-11-03T05:00:00Z,28.8667,-90.4833,43.9,11111222 
WAVCIS,ioos:station:WAVCIS:CSI06:1,2008-11-03T06:00:00Z,28.8667,-90.4833,48.3,11111222 
WAVCIS,ioos:station:WAVCIS:CSI06:1,2008-11-03T07:00:00Z,28.8667,-90.4833,59.7,11111222 
WAVCIS,ioos:station:WAVCIS:CSI06:1,2008-11-03T08:00:00Z,28.8667,-90.4833,63.9,11111222 
WAVCIS,ioos:station:WAVCIS:CSI06:1,2008-11-03T09:00:00Z,28.8667,-90.4833,61.6,11111222 
WAVCIS,ioos:station:WAVCIS:CSI06:1,2008-11-03T10:00:00Z,28.8667,-90.4833,55.5,11111222 
WAVCIS,ioos:station:WAVCIS:CSI06:1,2008-11-03T11:00:00Z,28.8667,-90.4833,46.5,11111222 
WAVCIS,ioos:station:WAVCIS:CSI06:1,2008-11-03T12:00:00Z,28.8667,-90.4833,53.2,11111222 
WAVCIS,ioos:station:WAVCIS:CSI06:1,2008-11-03T13:00:00Z,28.8667,-90.4833,56.2,11111222 
WAVCIS,ioos:station:WAVCIS:CSI06:1,2008-11-03T14:00:00Z,28.8667,-90.4833,64.4,11111222 
WAVCIS,ioos:station:WAVCIS:CSI06:1,2008-11-03T15:00:00Z,28.8667,-90.4833,70.3,11111222 
WAVCIS,ioos:station:WAVCIS:CSI06:1,2008-11-03T16:00:00Z,28.8667,-90.4833,71.7,11111222 
WAVCIS,ioos:station:WAVCIS:CSI06:1,2008-11-03T17:00:00Z,28.8667,-90.4833,75.8,11111222 
WAVCIS,ioos:station:WAVCIS:CSI06:1,2008-11-03T18:00:00Z,28.8667,-90.4833,76.9,11111222 
WAVCIS,ioos:station:WAVCIS:CSI06:1,2008-11-03T19:00:00Z,28.8667,-90.4833,74.8,11111222 
WAVCIS,ioos:station:WAVCIS:CSI06:1,2008-11-03T20:00:00Z,28.8667,-90.4833,69.0,11111222 
WAVCIS,ioos:station:WAVCIS:CSI06:1,2008-11-03T21:00:00Z,28.8667,-90.4833,57.8,11111222 
WAVCIS,ioos:station:WAVCIS:CSI06:1,2008-11-03T22:00:00Z,28.8667,-90.4833,59.7,11111222 
WAVCIS,ioos:station:WAVCIS:CSI06:1,2008-11-03T23:00:00Z,28.8667,-90.4833,48.1,11111222 
WAVCIS,ioos:station:WAVCIS:CSI06:1,2008-11-04T00:00:00Z,28.8667,-90.4833,48.8,11111222 
WAVCIS,ioos:station:WAVCIS:CSI06:1,2008-11-04T01:00:00Z,28.8667,-90.4833,58.8,11111222 
WAVCIS,ioos:station:WAVCIS:CSI06:1,2008-11-04T02:00:00Z,28.8667,-90.4833,54.4,11111222 
WAVCIS,ioos:station:WAVCIS:CSI06:1,2008-11-04T03:00:00Z,28.8667,-90.4833,55.3,11111222 
WAVCIS,ioos:station:WAVCIS:CSI06:1,2008-11-04T04:00:00Z,28.8667,-90.4833,64.5,11111222 
WAVCIS,ioos:station:WAVCIS:CSI06:1,2008-11-04T05:00:00Z,28.8667,-90.4833,68.2,11111222 
WAVCIS,ioos:station:WAVCIS:CSI06:1,2008-11-04T06:00:00Z,28.8667,-90.4833,66.6,11111222 
WAVCIS,ioos:station:WAVCIS:CSI06:1,2008-11-04T07:00:00Z,28.8667,-90.4833,65.8,11111222 
WAVCIS,ioos:station:WAVCIS:CSI06:1,2008-11-04T08:00:00Z,28.8667,-90.4833,66.5,11111222 
WAVCIS,ioos:station:WAVCIS:CSI06:1,2008-11-04T09:00:00Z,28.8667,-90.4833,67.0,11111222 
WAVCIS,ioos:station:WAVCIS:CSI06:1,2008-11-04T10:00:00Z,28.8667,-90.4833,66.8,11111222 
WAVCIS,ioos:station:WAVCIS:CSI06:1,2008-11-04T11:00:00Z,28.8667,-90.4833,61.6,11111222 
WAVCIS,ioos:station:WAVCIS:CSI06:1,2008-11-04T12:00:00Z,28.8667,-90.4833,61.4,11111222 
WAVCIS,ioos:station:WAVCIS:CSI06:1,2008-11-04T13:00:00Z,28.8667,-90.4833,62.6,11111222 
WAVCIS,ioos:station:WAVCIS:CSI06:1,2008-11-04T14:00:00Z,28.8667,-90.4833,73.1,11111222 
WAVCIS,ioos:station:WAVCIS:CSI06:1,2008-11-04T15:00:00Z,28.8667,-90.4833,76.5,11111222 
WAVCIS,ioos:station:WAVCIS:CSI06:1,2008-11-04T16:00:00Z,28.8667,-90.4833,75.6,11111222 
WAVCIS,ioos:station:WAVCIS:CSI06:1,2008-11-04T17:00:00Z,28.8667,-90.4833,76.6,11111222 
WAVCIS,ioos:station:WAVCIS:CSI06:1,2008-11-04T18:00:00Z,28.8667,-90.4833,74.2,11111222 
WAVCIS,ioos:station:WAVCIS:CSI06:1,2008-11-04T19:00:00Z,28.8667,-90.4833,73.0,11111222 
WAVCIS,ioos:station:WAVCIS:CSI06:1,2008-11-04T20:00:00Z,28.8667,-90.4833,67.8,11111222 
WAVCIS,ioos:station:WAVCIS:CSI06:1,2008-11-04T21:00:00Z,28.8667,-90.4833,72.3,11111222 
WAVCIS,ioos:station:WAVCIS:CSI06:1,2008-11-04T22:00:00Z,28.8667,-90.4833,71.6,11111222 
WAVCIS,ioos:station:WAVCIS:CSI06:1,2008-11-04T23:00:00Z,28.8667,-90.4833,72.4,11111222 
WAVCIS,ioos:station:WAVCIS:CSI06:1,2008-11-05T00:00:00Z,28.8667,-90.4833,71.2,11111222 
WAVCIS,ioos:station:WAVCIS:CSI06:1,2008-11-05T01:00:00Z,28.8667,-90.4833,69.7,11111222 
WAVCIS,ioos:station:WAVCIS:CSI06:1,2008-11-05T02:00:00Z,28.8667,-90.4833,68.0,11111222 
WAVCIS,ioos:station:WAVCIS:CSI06:1,2008-11-05T03:00:00Z,28.8667,-90.4833,67.4,11111222 
WAVCIS,ioos:station:WAVCIS:CSI06:1,2008-11-05T04:00:00Z,28.8667,-90.4833,65.6,11111222 
WAVCIS,ioos:station:WAVCIS:CSI06:1,2008-11-05T05:00:00Z,28.8667,-90.4833,63.1,11111222 
WAVCIS,ioos:station:WAVCIS:CSI06:1,2008-11-05T06:00:00Z,28.8667,-90.4833,53.8,11111222 
WAVCIS,ioos:station:WAVCIS:CSI06:1,2008-11-05T07:00:00Z,28.8667,-90.4833,55.9,11111222 
WAVCIS,ioos:station:WAVCIS:CSI06:1,2008-11-05T08:00:00Z,28.8667,-90.4833,58.0,11111222 
WAVCIS,ioos:station:WAVCIS:CSI06:1,2008-11-05T09:00:00Z,28.8667,-90.4833,69.3,11111222 
WAVCIS,ioos:station:WAVCIS:CSI06:1,2008-11-05T10:00:00Z,28.8667,-90.4833,70.8,11111222 
WAVCIS,ioos:station:WAVCIS:CSI06:1,2008-11-05T11:00:00Z,28.8667,-90.4833,63.6,11111222 
WAVCIS,ioos:station:WAVCIS:CSI06:1,2008-11-05T12:00:00Z,28.8667,-90.4833,64.3,11111222 
WAVCIS,ioos:station:WAVCIS:CSI06:1,2008-11-05T13:00:00Z,28.8667,-90.4833,60.8,11111222 
WAVCIS,ioos:station:WAVCIS:CSI06:1,2008-11-05T14:00:00Z,28.8667,-90.4833,61.8,11111222 
WAVCIS,ioos:station:WAVCIS:CSI06:1,2008-11-05T15:00:00Z,28.8667,-90.4833,58.8,11111222 
WAVCIS,ioos:station:WAVCIS:CSI06:1,2008-11-05T16:00:00Z,28.8667,-90.4833,55.6,11111222 
WAVCIS,ioos:station:WAVCIS:CSI06:1,2008-11-05T17:00:00Z,28.8667,-90.4833,54.0,11111222 
WAVCIS,ioos:station:WAVCIS:CSI06:1,2008-11-05T18:00:00Z,28.8667,-90.4833,53.2,11111222 
WAVCIS,ioos:station:WAVCIS:CSI06:1,2008-11-05T19:00:00Z,28.8667,-90.4833,54.1,11111222 
WAVCIS,ioos:station:WAVCIS:CSI06:1,2008-11-05T20:00:00Z,28.8667,-90.4833,64.5,11111222 
WAVCIS,ioos:station:WAVCIS:CSI06:1,2008-11-05T21:00:00Z,28.8667,-90.4833,65.3,11111222 
WAVCIS,ioos:station:WAVCIS:CSI06:1,2008-11-05T22:00:00Z,28.8667,-90.4833,62.0,11111222 
WAVCIS,ioos:station:WAVCIS:CSI06:1,2008-11-05T23:00:00Z,28.8667,-90.4833,60.4,11111222 
WAVCIS,ioos:station:WAVCIS:CSI06:1,2008-11-06T00:00:00Z,28.8667,-90.4833,63.6,11111222 
WAVCIS,ioos:station:WAVCIS:CSI06:1,2008-11-06T01:00:00Z,28.8667,-90.4833,58.6,11111222 
WAVCIS,ioos:station:WAVCIS:CSI06:1,2008-11-06T02:00:00Z,28.8667,-90.4833,56.0,11111222 
WAVCIS,ioos:station:WAVCIS:CSI06:1,2008-11-06T03:00:00Z,28.8667,-90.4833,58.6,11111222 
WAVCIS,ioos:station:WAVCIS:CSI06:1,2008-11-06T05:00:00Z,28.8667,-90.4833,55.6,11111222 
WAVCIS,ioos:station:WAVCIS:CSI06:1,2008-11-06T06:00:00Z,28.8667,-90.4833,55.1,11111222 
WAVCIS,ioos:station:WAVCIS:CSI06:1,2008-11-06T08:00:00Z,28.8667,-90.4833,53.0,11111222 
WAVCIS,ioos:station:WAVCIS:CSI06:1,2008-11-06T09:00:00Z,28.8667,-90.4833,57.0,11111222 
WAVCIS,ioos:station:WAVCIS:CSI06:1,2008-11-06T10:00:00Z,28.8667,-90.4833,62.5,11111222 
WAVCIS,ioos:station:WAVCIS:CSI06:1,2008-11-06T11:00:00Z,28.8667,-90.4833,66.4,11111222 
WAVCIS,ioos:station:WAVCIS:CSI06:1,2008-11-06T12:00:00Z,28.8667,-90.4833,68.8,11111222 
WAVCIS,ioos:station:WAVCIS:CSI06:1,2008-11-06T13:00:00Z,28.8667,-90.4833,65.3,11111222 
WAVCIS,ioos:station:WAVCIS:CSI06:1,2008-11-06T14:00:00Z,28.8667,-90.4833,64.6,11111222 
WAVCIS,ioos:station:WAVCIS:CSI06:1,2008-11-06T15:00:00Z,28.8667,-90.4833,64.7,11111222 
WAVCIS,ioos:station:WAVCIS:CSI06:1,2008-11-06T16:00:00Z,28.8667,-90.4833,66.9,11111222 
WAVCIS,ioos:station:WAVCIS:CSI06:1,2008-11-06T17:00:00Z,28.8667,-90.4833,65.6,11111222 
WAVCIS,ioos:station:WAVCIS:CSI06:1,2008-11-06T19:00:00Z,28.8667,-90.4833,66.5,11111222 
WAVCIS,ioos:station:WAVCIS:CSI06:1,2008-11-06T20:00:00Z,28.8667,-90.4833,66.0,11111222 
WAVCIS,ioos:station:WAVCIS:CSI06:1,2008-11-06T21:00:00Z,28.8667,-90.4833,69.5,11111222 
WAVCIS,ioos:station:WAVCIS:CSI06:1,2008-11-06T22:00:00Z,28.8667,-90.4833,68.4,11111222 
WAVCIS,ioos:station:WAVCIS:CSI06:1,2008-11-06T23:00:00Z,28.8667,-90.4833,70.5,11111222 
WAVCIS,ioos:station:WAVCIS:CSI06:1,2008-11-07T00:00:00Z,28.8667,-90.4833,86.0,11111222 
WAVCIS,ioos:station:WAVCIS:CSI06:1,2008-11-07T01:00:00Z,28.8667,-90.4833,87.1,11111222 
WAVCIS,ioos:station:WAVCIS:CSI06:1,2008-11-07T02:00:00Z,28.8667,-90.4833,84.8,11111222 
WAVCIS,ioos:station:WAVCIS:CSI06:1,2008-11-07T03:00:00Z,28.8667,-90.4833,85.6,11111222 
WAVCIS,ioos:station:WAVCIS:CSI06:1,2008-11-07T04:00:00Z,28.8667,-90.4833,86.3,11111222 
WAVCIS,ioos:station:WAVCIS:CSI06:1,2008-11-07T05:00:00Z,28.8667,-90.4833,84.6,11111222 
WAVCIS,ioos:station:WAVCIS:CSI06:1,2008-11-07T06:00:00Z,28.8667,-90.4833,80.8,11111222 
WAVCIS,ioos:station:WAVCIS:CSI06:1,2008-11-07T07:00:00Z,28.8667,-90.4833,83.1,11111222 
WAVCIS,ioos:station:WAVCIS:CSI06:1,2008-11-07T08:00:00Z,28.8667,-90.4833,82.9,11111222 
WAVCIS,ioos:station:WAVCIS:CSI06:1,2008-11-07T09:00:00Z,28.8667,-90.4833,82.2,11111222 
WAVCIS,ioos:station:WAVCIS:CSI06:1,2008-11-07T10:00:00Z,28.8667,-90.4833,80.7,11111222 
WAVCIS,ioos:station:WAVCIS:CSI06:1,2008-11-07T11:00:00Z,28.8667,-90.4833,82.6,11111222 
WAVCIS,ioos:station:WAVCIS:CSI06:1,2008-11-07T12:00:00Z,28.8667,-90.4833,76.5,11111222 
WAVCIS,ioos:station:WAVCIS:CSI06:1,2008-11-07T13:00:00Z,28.8667,-90.4833,79.6,11111222 
WAVCIS,ioos:station:WAVCIS:CSI06:1,2008-11-07T14:00:00Z,28.8667,-90.4833,78.1,11111222 
WAVCIS,ioos:station:WAVCIS:CSI06:1,2008-11-07T15:00:00Z,28.8667,-90.4833,71.0,11111222 
WAVCIS,ioos:station:WAVCIS:CSI06:1,2008-11-07T16:00:00Z,28.8667,-90.4833,62.8,11111222 
WAVCIS,ioos:station:WAVCIS:CSI06:1,2008-11-07T17:00:00Z,28.8667,-90.4833,81.7,11111222 
WAVCIS,ioos:station:WAVCIS:CSI06:1,2008-11-07T18:00:00Z,28.8667,-90.4833,82.8,11111222 
WAVCIS,ioos:station:WAVCIS:CSI06:1,2008-11-07T19:00:00Z,28.8667,-90.4833,81.3,11111222 
WAVCIS,ioos:station:WAVCIS:CSI06:1,2008-11-07T20:00:00Z,28.8667,-90.4833,78.0,11111222 
WAVCIS,ioos:station:WAVCIS:CSI06:1,2008-11-07T21:00:00Z,28.8667,-90.4833,73.9,11111222 
WAVCIS,ioos:station:WAVCIS:CSI06:1,2008-11-07T22:00:00Z,28.8667,-90.4833,62.0,11111222 
WAVCIS,ioos:station:WAVCIS:CSI06:1,2008-11-07T23:00:00Z,28.8667,-90.4833,52.2,11111222 
WAVCIS,ioos:station:WAVCIS:CSI06:1,2008-11-08T00:00:00Z,28.8667,-90.4833,50.7,11111222 
WAVCIS,ioos:station:WAVCIS:CSI06:1,2008-11-08T01:00:00Z,28.8667,-90.4833,48.3,11111222 
WAVCIS,ioos:station:WAVCIS:CSI06:1,2008-11-08T02:00:00Z,28.8667,-90.4833,50.6,11111222 
WAVCIS,ioos:station:WAVCIS:CSI06:1,2008-11-08T03:00:00Z,28.8667,-90.4833,37.8,11111222 
WAVCIS,ioos:station:WAVCIS:CSI06:1,2008-11-08T04:00:00Z,28.8667,-90.4833,41.4,11111222 
WAVCIS,ioos:station:WAVCIS:CSI06:1,2008-11-08T05:00:00Z,28.8667,-90.4833,37.6,11111222 
WAVCIS,ioos:station:WAVCIS:CSI06:1,2008-11-08T06:00:00Z,28.8667,-90.4833,35.9,11111222 
WAVCIS,ioos:station:WAVCIS:CSI06:1,2008-11-08T07:00:00Z,28.8667,-90.4833,38.7,11111222 
WAVCIS,ioos:station:WAVCIS:CSI06:1,2008-11-08T09:00:00Z,28.8667,-90.4833,35.3,11111222 
WAVCIS,ioos:station:WAVCIS:CSI06:1,2008-11-08T10:00:00Z,28.8667,-90.4833,35.5,11111222 
WAVCIS,ioos:station:WAVCIS:CSI06:1,2008-11-08T11:00:00Z,28.8667,-90.4833,34.5,11111222 
WAVCIS,ioos:station:WAVCIS:CSI06:1,2008-11-08T12:00:00Z,28.8667,-90.4833,38.5,11111222 
WAVCIS,ioos:station:WAVCIS:CSI06:1,2008-11-08T13:00:00Z,28.8667,-90.4833,41.2,11111222 
WAVCIS,ioos:station:WAVCIS:CSI06:1,2008-11-08T14:00:00Z,28.8667,-90.4833,34.9,11111222 
WAVCIS,ioos:station:WAVCIS:CSI06:1,2008-11-08T15:00:00Z,28.8667,-90.4833,31.4,11111222 
WAVCIS,ioos:station:WAVCIS:CSI06:1,2008-11-08T16:00:00Z,28.8667,-90.4833,32.8,11111222 
WAVCIS,ioos:station:WAVCIS:CSI06:1,2008-11-08T17:00:00Z,28.8667,-90.4833,29.0,11111222 
WAVCIS,ioos:station:WAVCIS:CSI06:1,2008-11-08T18:00:00Z,28.8667,-90.4833,30.4,11111222 
WAVCIS,ioos:station:WAVCIS:CSI06:1,2008-11-08T19:00:00Z,28.8667,-90.4833,29.1,11111222 
WAVCIS,ioos:station:WAVCIS:CSI06:1,2008-11-08T20:00:00Z,28.8667,-90.4833,26.0,11111222 
WAVCIS,ioos:station:WAVCIS:CSI06:1,2008-11-08T21:00:00Z,28.8667,-90.4833,24.5,11111222 
WAVCIS,ioos:station:WAVCIS:CSI06:1,2008-11-08T22:00:00Z,28.8667,-90.4833,32.3,11111222 
WAVCIS,ioos:station:WAVCIS:CSI06:1,2008-11-08T23:00:00Z,28.8667,-90.4833,23.5,11111222 
WAVCIS,ioos:station:WAVCIS:CSI06:1,2008-11-09T00:00:00Z,28.8667,-90.4833,27.2,11111222 
WAVCIS,ioos:station:WAVCIS:CSI06:1,2008-11-09T01:00:00Z,28.8667,-90.4833,29.6,11111222 
WAVCIS,ioos:station:WAVCIS:CSI06:1,2008-11-09T02:00:00Z,28.8667,-90.4833,31.1,11111222 
WAVCIS,ioos:station:WAVCIS:CSI06:1,2008-11-09T03:00:00Z,28.8667,-90.4833,33.2,11111222 
WAVCIS,ioos:station:WAVCIS:CSI06:1,2008-11-09T04:00:00Z,28.8667,-90.4833,36.4,11111222 
WAVCIS,ioos:station:WAVCIS:CSI06:1,2008-11-09T05:00:00Z,28.8667,-90.4833,40.8,11111222 
WAVCIS,ioos:station:WAVCIS:CSI06:1,2008-11-09T06:00:00Z,28.8667,-90.4833,41.0,11111222 
WAVCIS,ioos:station:WAVCIS:CSI06:1,2008-11-09T07:00:00Z,28.8667,-90.4833,38.1,11111222 
WAVCIS,ioos:station:WAVCIS:CSI06:1,2008-11-09T08:00:00Z,28.8667,-90.4833,42.9,11111222 
WAVCIS,ioos:station:WAVCIS:CSI06:1,2008-11-09T09:00:00Z,28.8667,-90.4833,63.9,11111222 
WAVCIS,ioos:station:WAVCIS:CSI06:1,2008-11-09T10:00:00Z,28.8667,-90.4833,43.1,11111222 
WAVCIS,ioos:station:WAVCIS:CSI06:1,2008-11-09T11:00:00Z,28.8667,-90.4833,43.1,11111222 
WAVCIS,ioos:station:WAVCIS:CSI06:1,2008-11-09T12:00:00Z,28.8667,-90.4833,39.9,11111222 
WAVCIS,ioos:station:WAVCIS:CSI06:1,2008-11-09T13:00:00Z,28.8667,-90.4833,40.9,11111222 
WAVCIS,ioos:station:WAVCIS:CSI06:1,2008-11-09T15:00:00Z,28.8667,-90.4833,40.0,11111222 
WAVCIS,ioos:station:WAVCIS:CSI06:1,2008-11-09T16:00:00Z,28.8667,-90.4833,43.0,11111222 
WAVCIS,ioos:station:WAVCIS:CSI06:1,2008-11-09T17:00:00Z,28.8667,-90.4833,42.0,11111222 
WAVCIS,ioos:station:WAVCIS:CSI06:1,2008-11-09T18:00:00Z,28.8667,-90.4833,38.3,11111222 
WAVCIS,ioos:station:WAVCIS:CSI06:1,2008-11-09T19:00:00Z,28.8667,-90.4833,40.4,11111222 
WAVCIS,ioos:station:WAVCIS:CSI06:1,2008-11-09T20:00:00Z,28.8667,-90.4833,39.2,11111222 
WAVCIS,ioos:station:WAVCIS:CSI06:1,2008-11-09T21:00:00Z,28.8667,-90.4833,38.1,11111222 
WAVCIS,ioos:station:WAVCIS:CSI06:1,2008-11-09T22:00:00Z,28.8667,-90.4833,34.7,11111222 
WAVCIS,ioos:station:WAVCIS:CSI06:1,2008-11-09T23:00:00Z,28.8667,-90.4833,33.6,11111222 
WAVCIS,ioos:station:WAVCIS:CSI06:1,2008-11-10T00:00:00Z,28.8667,-90.4833,40.7,11111222 
WAVCIS,ioos:station:WAVCIS:CSI06:1,2008-11-10T01:00:00Z,28.8667,-90.4833,43.8,11111222 
WAVCIS,ioos:station:WAVCIS:CSI06:1,2008-11-10T02:00:00Z,28.8667,-90.4833,43.7,11111222 
WAVCIS,ioos:station:WAVCIS:CSI06:1,2008-11-10T04:00:00Z,28.8667,-90.4833,35.5,11111222 
WAVCIS,ioos:station:WAVCIS:CSI06:1,2008-11-10T05:00:00Z,28.8667,-90.4833,35.0,11111222 
WAVCIS,ioos:station:WAVCIS:CSI06:1,2008-11-10T06:00:00Z,28.8667,-90.4833,30.4,11111222 
WAVCIS,ioos:station:WAVCIS:CSI06:1,2008-11-10T07:00:00Z,28.8667,-90.4833,30.8,11111222 
WAVCIS,ioos:station:WAVCIS:CSI06:1,2008-11-10T08:00:00Z,28.8667,-90.4833,35.9,11111222 
WAVCIS,ioos:station:WAVCIS:CSI06:1,2008-11-10T09:00:00Z,28.8667,-90.4833,39.1,11111222 
WAVCIS,ioos:station:WAVCIS:CSI06:1,2008-11-10T10:00:00Z,28.8667,-90.4833,45.7,11111222 
WAVCIS,ioos:station:WAVCIS:CSI06:1,2008-11-10T11:00:00Z,28.8667,-90.4833,52.1,11111222 
WAVCIS,ioos:station:WAVCIS:CSI06:1,2008-11-10T12:00:00Z,28.8667,-90.4833,53.3,11111222 
WAVCIS,ioos:station:WAVCIS:CSI06:1,2008-11-10T13:00:00Z,28.8667,-90.4833,56.8,11111222 
WAVCIS,ioos:station:WAVCIS:CSI06:1,2008-11-10T14:00:00Z,28.8667,-90.4833,52.2,11111222 
WAVCIS,ioos:station:WAVCIS:CSI06:1,2008-11-10T15:00:00Z,28.8667,-90.4833,50.5,11111222 
WAVCIS,ioos:station:WAVCIS:CSI06:1,2008-11-10T16:00:00Z,28.8667,-90.4833,60.6,11111222 
WAVCIS,ioos:station:WAVCIS:CSI06:1,2008-11-10T17:00:00Z,28.8667,-90.4833,64.2,11111222 
WAVCIS,ioos:station:WAVCIS:CSI06:1,2008-11-10T18:00:00Z,28.8667,-90.4833,63.3,11111222 
WAVCIS,ioos:station:WAVCIS:CSI06:1,2008-11-10T19:00:00Z,28.8667,-90.4833,64.1,11111222 
WAVCIS,ioos:station:WAVCIS:CSI06:1,2008-11-10T20:00:00Z,28.8667,-90.4833,60.1,11111222 
WAVCIS,ioos:station:WAVCIS:CSI06:1,2008-11-10T21:00:00Z,28.8667,-90.4833,61.7,11111222 
WAVCIS,ioos:station:WAVCIS:CSI06:1,2008-11-10T22:00:00Z,28.8667,-90.4833,63.6,11111222 
WAVCIS,ioos:station:WAVCIS:CSI06:1,2008-11-10T23:00:00Z,28.8667,-90.4833,64.2,11111222 
WAVCIS,ioos:station:WAVCIS:CSI06:1,2008-11-11T00:00:00Z,28.8667,-90.4833,64.5,11111222 
WAVCIS,ioos:station:WAVCIS:CSI06:1,2008-11-11T01:00:00Z,28.8667,-90.4833,65.6,11111222 
WAVCIS,ioos:station:WAVCIS:CSI06:1,2008-11-11T02:00:00Z,28.8667,-90.4833,62.7,11111222 
WAVCIS,ioos:station:WAVCIS:CSI06:1,2008-11-11T03:00:00Z,28.8667,-90.4833,64.8,11111222 
WAVCIS,ioos:station:WAVCIS:CSI06:1,2008-11-11T04:00:00Z,28.8667,-90.4833,61.9,11111222 
WAVCIS,ioos:station:WAVCIS:CSI06:1,2008-11-11T05:00:00Z,28.8667,-90.4833,62.1,11111222 
WAVCIS,ioos:station:WAVCIS:CSI06:1,2008-11-11T06:00:00Z,28.8667,-90.4833,62.6,11111222 
WAVCIS,ioos:station:WAVCIS:CSI06:1,2008-11-11T07:00:00Z,28.8667,-90.4833,60.9,11111222 
WAVCIS,ioos:station:WAVCIS:CSI06:1,2008-11-11T08:00:00Z,28.8667,-90.4833,58.1,11111222 
WAVCIS,ioos:station:WAVCIS:CSI06:1,2008-11-11T09:00:00Z,28.8667,-90.4833,58.0,11111222 
WAVCIS,ioos:station:WAVCIS:CSI06:1,2008-11-11T10:00:00Z,28.8667,-90.4833,55.6,11111222 
WAVCIS,ioos:station:WAVCIS:CSI06:1,2008-11-11T11:00:00Z,28.8667,-90.4833,55.4,11111222 
WAVCIS,ioos:station:WAVCIS:CSI06:1,2008-11-11T12:00:00Z,28.8667,-90.4833,60.4,11111222 
WAVCIS,ioos:station:WAVCIS:CSI06:1,2008-11-11T13:00:00Z,28.8667,-90.4833,59.4,11111222 
WAVCIS,ioos:station:WAVCIS:CSI06:1,2008-11-11T14:00:00Z,28.8667,-90.4833,59.6,11111222 
WAVCIS,ioos:station:WAVCIS:CSI06:1,2008-11-11T15:00:00Z,28.8667,-90.4833,59.8,11111222 
WAVCIS,ioos:station:WAVCIS:CSI06:1,2008-11-11T16:00:00Z,28.8667,-90.4833,57.6,11111222 
WAVCIS,ioos:station:WAVCIS:CSI06:1,2008-11-11T17:00:00Z,28.8667,-90.4833,57.8,11111222 
WAVCIS,ioos:station:WAVCIS:CSI06:1,2008-11-11T18:00:00Z,28.8667,-90.4833,59.1,11111222 
WAVCIS,ioos:station:WAVCIS:CSI06:1,2008-11-11T19:00:00Z,28.8667,-90.4833,61.3,11111222 
WAVCIS,ioos:station:WAVCIS:CSI06:1,2008-11-11T20:00:00Z,28.8667,-90.4833,63.0,11111222 
WAVCIS,ioos:station:WAVCIS:CSI06:1,2008-11-11T21:00:00Z,28.8667,-90.4833,64.1,11111222 
WAVCIS,ioos:station:WAVCIS:CSI06:1,2008-11-11T22:00:00Z,28.8667,-90.4833,64.7,11111222 
WAVCIS,ioos:station:WAVCIS:CSI06:1,2008-11-11T23:00:00Z,28.8667,-90.4833,63.9,11111222 
WAVCIS,ioos:station:WAVCIS:CSI06:1,2008-11-12T00:00:00Z,28.8667,-90.4833,61.9,11111222 
WAVCIS,ioos:station:WAVCIS:CSI06:1,2008-11-12T01:00:00Z,28.8667,-90.4833,64.2,11111222 
WAVCIS,ioos:station:WAVCIS:CSI06:1,2008-11-12T02:00:00Z,28.8667,-90.4833,64.1,11111222 
WAVCIS,ioos:station:WAVCIS:CSI06:1,2008-11-12T03:00:00Z,28.8667,-90.4833,64.4,11111222 
WAVCIS,ioos:station:WAVCIS:CSI06:1,2008-11-12T04:00:00Z,28.8667,-90.4833,62.4,11111222 
WAVCIS,ioos:station:WAVCIS:CSI06:1,2008-11-12T06:00:00Z,28.8667,-90.4833,65.3,11111222 
WAVCIS,ioos:station:WAVCIS:CSI06:1,2008-11-12T07:00:00Z,28.8667,-90.4833,68.1,11111222 
WAVCIS,ioos:station:WAVCIS:CSI06:1,2008-11-12T08:00:00Z,28.8667,-90.4833,66.9,11111222 
WAVCIS,ioos:station:WAVCIS:CSI06:1,2008-11-12T09:00:00Z,28.8667,-90.4833,68.0,11111222 
WAVCIS,ioos:station:WAVCIS:CSI06:1,2008-11-12T10:00:00Z,28.8667,-90.4833,72.7,11111222 
WAVCIS,ioos:station:WAVCIS:CSI06:1,2008-11-12T11:00:00Z,28.8667,-90.4833,72.3,11111222 
WAVCIS,ioos:station:WAVCIS:CSI06:1,2008-11-12T12:00:00Z,28.8667,-90.4833,73.1,11111222 
WAVCIS,ioos:station:WAVCIS:CSI06:1,2008-11-12T13:00:00Z,28.8667,-90.4833,74.3,11111222 
WAVCIS,ioos:station:WAVCIS:CSI06:1,2008-11-12T14:00:00Z,28.8667,-90.4833,75.6,11111222 
WAVCIS,ioos:station:WAVCIS:CSI06:1,2008-11-12T15:00:00Z,28.8667,-90.4833,66.6,11111222 
WAVCIS,ioos:station:WAVCIS:CSI06:1,2008-11-12T16:00:00Z,28.8667,-90.4833,70.0,11111222 
WAVCIS,ioos:station:WAVCIS:CSI06:1,2008-11-12T17:00:00Z,28.8667,-90.4833,73.1,11111222 